Home   Weather   Kaufbeuren   Past weeks

Flag for Germany Past Weather in Kaufbeuren, Bavaria, Germany — Yesterday and Last 2 Weeks

Now
64 °F

Broken clouds.


Feels Like: 64 °F
Forecast: 54 / 65 °F
Wind: 2 mph from Northwest

Location: Altenstadt Airport

Current Time: Aug 18, 2017 at 9:19:07 am

Latest Report: Aug 18, 2017 at 8:20 am


Visibility: N/A

Pressure: 30.12 "Hg (27.77 "Hg at 693m altitude)

Humidity: 88%

Dew Point: 61 °F

Location of KaufbeurenLocation

Past Weather in Kaufbeuren — Graph

°F

Kaufbeuren Temperature Yesterday

Maximum temperature yesterday: 77 °F (at 1:20 pm)
Minimum temperature yesterday: 57 °F (at 2:20 am)
Average temperature yesterday: 67 °F

High & Low Weather Summary for the Past Weeks

 TemperatureHumidityPressure
High84 °F (Aug 3, 4:20 pm)100% (Aug 4, 4:20 am)30.27 "Hg (Aug 4, 4:20 am)
Low45 °F (Aug 7, 5:47 am)35% (Aug 15, 5:20 pm)29.89 "Hg (Aug 8, 9:20 am)
Average63 °F82%30.12 "Hg
* Reported Aug 3 7:20 am — Aug 18 7:20 am, Kaufbeuren. Weather by CustomWeather, © 2017

Note: Actual official high and low records may vary slightly from our data, if they occured in-between our weather recording intervals... More about our weather records

Advertising

Kaufbeuren Weather History for the Previous 24 Hours

Scroll right to see more
 ConditionsComfort  
Time TempWeatherWind HumidityBarometerVisibility
7:20 am
Fri, Aug 18
61 °FScattered clouds.3 mph94%30.12 "HgN/A
6:20 am59 °FFog.2 mph100%30.12 "HgN/A
5:20 am59 °FPassing clouds.5 mph94%30.12 "HgN/A
4:20 am59 °FCool.3 mph100%30.12 "HgN/A
3:20 am61 °FCool.6 mph94%30.12 "HgN/A
2:20 am61 °FCool.3 mph94%30.15 "HgN/A
1:20 am63 °FMild.3 mph88%30.15 "HgN/A
12:20 am64 °FMild.2 mph88%30.15 "HgN/A
11:20 pm
Thu, Aug 17
64 °FMild.2 mph88%30.15 "HgN/A
10:20 pm64 °FMild.5 mph88%30.15 "HgN/A
9:20 pm68 °FMild.3 mph83%30.15 "HgN/A
8:20 pm70 °FScattered clouds.3 mph78%30.15 "HgN/A
7:20 pm73 °FScattered clouds.5 mph69%30.15 "HgN/A
6:20 pm77 °FPartly sunny.5 mph54%30.15 "HgN/A
5:20 pm77 °FBroken clouds.3 mph57%30.12 "HgN/A
4:20 pm77 °FBroken clouds.3 mph54%30.12 "HgN/A
3:20 pm77 °FPartly sunny.5 mph54%30.15 "HgN/A
2:20 pm77 °FBroken clouds.5 mph54%30.15 "HgN/A
1:20 pm77 °FPartly sunny.5 mph51%30.15 "HgN/A
12:20 pm75 °FPartly sunny.5 mph61%30.15 "HgN/A
11:20 am73 °FPartly sunny.5 mph61%30.18 "HgN/A
10:20 am73 °FScattered clouds.1 mph61%30.18 "HgN/A
9:20 am68 °FScattered clouds.3 mph78%30.18 "HgN/A
Weather by CustomWeather, © 2017

See weather overviewHow to use our weather pages